Regional Weather Roundup
Issued by NWS

Home | Current Version | Previous Version | Text Only | Print | Product List | Glossary Off
Versions: 1 2 3 4 5 6 7 8 9 10 11 12 13 14 15 16 17 18 19 20 21 22 23 24 25 26 27

000
ASUS45 KBOU 041007
RWRCO

WEATHER ROUNDUP FOR COLORADO
NATIONAL WEATHER SERVICE DENVER/BOULDER CO
400 AM MDT WED MAY 04 2016

NOTE: "FAIR" INDICATES FEW OR NO CLOUDS BELOW 12000 FEET WITH NO
SIGNIFICANT WEATHER AND/OR OBSTRUCTIONS TO VISIBILITY.

COZ001>005-013-030-031-041100-
...NORTHWEST COLORADO...

CITY           SKY/WX    TMP DP  RH WIND       PRES   REMARKS
CRAIG          FAIR      31  28  89 CALM      30.29F
HAYDEN         FAIR      37  28  70 SE12      30.31S
MEEKER         FAIR      36  28  73 NE5       30.30S
MOUNT WERNER   NOT AVBL
STEAMBOAT SPGS FAIR      35  29  78 CALM      30.34R
WALDEN         FAIR      30  23  74 E5        30.39S WCI  25
$$

COZ006>008-011-041100-
...WEST CENTRAL VALLEYS...

CITY           SKY/WX    TMP DP  RH WIND       PRES   REMARKS
GRAND JUNCTION FAIR      48  32  53 E9        30.21R
MONTROSE       FAIR      45  29  53 SE9       30.29R
EAGLE          FAIR      36  27  69 CALM      30.37S
RIFLE          FAIR      41  30  65 CALM      30.27S
DELTA          NOT AVBL
NUCLA          NOT AVBL
$$

COZ017>023-064>068-041100-
...SOUTHWEST COLORADO...

CITY           SKY/WX    TMP DP  RH WIND       PRES   REMARKS
DURANGO        FAIR      35  32  88 NE3       30.31F
CORTEZ         FAIR      35  28  75 CALM      30.27S
PAGOSA SPRINGS FAIR      36  32  87 CALM      30.38S
TELLURIDE      FAIR      38  27  62 SE8       30.43S
WOLF CREEK PAS FAIR      30  21  69 SW12      30.56S WCI  21
$$

COZ009-010-012-014-032>034-037-058>063-041100-
...CENTRAL COLORADO...

CITY           SKY/WX    TMP DP  RH WIND       PRES   REMARKS
ASPEN          FAIR      36  24  62 S6        30.36S
BUENA VISTA    FAIR      32  24  71 NW3       30.40S
COPPER MTN     NOT AVBL
BERTHOUD PASS  FAIR      28  19  69 N21       30.52S WCI  15
COTTONWOOD PAS FAIR      43   9  24 CALM      30.45S
GUNNISON       FAIR      30  21  69 CALM      30.42R
KREMMLING      FAIR      30  25  80 CALM      30.40S
LEADVILLE      FAIR      26  15  63 NE5       30.44S WCI  20
MONARCH PASS   FAIR      32  12  43 W17       30.63R WCI  21
SALIDA         FAIR      36  25  63 W3        30.47R
SUNLIGHT       FAIR      37  19  48 CALM      30.51S
WILKERSON PASS FAIR      32  16  51 W6        30.51S WCI  26
$$

COZ069>075-041100-
...SAN LUIS VALLEY/SANGRE DE CRISTO MOUNTAINS...

CITY           SKY/WX    TMP DP  RH WIND       PRES   REMARKS
ALAMOSA        FAIR      31  26  82 CALM      30.37R
LA VETA PASS   FAIR      34  18  51 SW3       30.45S
SAGUACHE       FAIR      34  23  64 NW9       30.40R WCI  26
$$

COZ035-036-038>040-041100-
...NORTHERN COLORADO FRONT RANGE...

CITY           SKY/WX    TMP DP  RH WIND       PRES   REMARKS
DENVER INTL AP FAIR      45  28  51 SW13      30.25S
DMNS CITY PARK   N/A     46  29  50 E3G10     30.25S
AURORA         FAIR      43  30  59 S7        30.27S
FRONT RANGE AP NOT AVBL
ERIE MUNI ARPT FAIR      37  34  90 CALM      30.25R
BOULDER MUN AP FAIR      52  30  43 CALM      30.24S
CENTENNIAL     FAIR      40  29  64 SE5       30.27S
BROOMFIELD     FAIR      46  32  57 CALM      30.26S
FORT COLLINS   FAIR      43  34  70 N5        30.24S
LONGMONT       FAIR      43  33  67 W3        30.26R
$$

COZ041-046-047-076>085-087-088-041100-
...PIKES PEAK/PALMER DIVIDE AND SOUTHERN FOOTHILLS...

CITY           SKY/WX    TMP DP  RH WIND       PRES   REMARKS
COLO. SPRINGS  FAIR      42  27  55 N9        30.30S
A. F. ACADEMY  FAIR      34  27  75 N9        30.30F WCI  26
SCHRIEVER AFB  NOT AVBL
ELLICOTT       FAIR     N/A N/A N/A CALM      30.28S
FALCON         NOT AVBL
FORT CARSON    FAIR      39  28  64 NW9       30.27F
LIMON          FAIR      39  34  82 NW7       30.25S
MONUMENT HILL  FAIR      34  27  75 SW8       30.33S WCI  27
TRINIDAD       FAIR      41  29  62 W17       30.29S
$$

COZ042>045-048>051-090-091-041100-
...NORTHEAST COLORADO...

CITY           SKY/WX    TMP DP  RH WIND       PRES   REMARKS
GREELEY ARPT   FAIR      39  36  87 CALM      30.23F
AKRON          FAIR      43  36  76 W10       30.20S
BURLINGTON     FAIR      42  33  70 W10       30.19R
WRAY           NOT AVBL
STERLING       FAIR      37  36  93 S6        30.18S
HOLYOKE        NOT AVBL
FORT MORGAN    FAIR      40  37  89 W10       30.21S
$$

COZ086-089-092>099-041100-
...SOUTHEAST COLORADO...

CITY           SKY/WX    TMP DP  RH WIND       PRES   REMARKS
PUEBLO         FAIR      45  33  63 W7        30.25S
LA JUNTA       FAIR      46  36  68 W15       30.22R
LAMAR          FAIR      40  36  86 SW8       30.17S
SPRINGFIELD      N/A     41  34  76 W10       30.19S
$$




USA.gov is the U.S. government's official web portal to all federal, state and local government web resources and services.